This is the latest recevied weather packets stored in our database for station/object KK6LVQ-13. If no packets are shown the sender has not sent any weather packets the latest 10 day(s).
| Time | Temp. | Humidity | Pressure | Rain* | Wind** | Luminosity | Snow |
|---|---|---|---|---|---|---|---|
| 1777648009 | 9.44° C | 96% | 1020.4 hPa | 0 mm | - | 103 W/m² | - |
| 1777647705 | 8.89° C | 97% | 1020.3 hPa | 0 mm | - | 107 W/m² | - |
| 1777647401 | 8.89° C | 97% | 1020.2 hPa | 0 mm | - | 49 W/m² | - |
| 1777647100 | 8.89° C | 97% | 1020.1 hPa | 0 mm | - | 44 W/m² | - |
| 1777646796 | 8.89° C | 98% | 1020.4 hPa | 0 mm | - | 51 W/m² | - |
| 1777646490 | 8.89° C | 98% | 1020 hPa | 0 mm | - | 56 W/m² | - |
| 1777646187 | 8.89° C | 98% | 1020.2 hPa | 0 mm | - | 66 W/m² | - |
| 1777645885 | 8.33° C | 98% | 1020.1 hPa | 0 mm | - | 63 W/m² | - |
| 1777645582 | 8.33° C | 98% | 1020.1 hPa | 0 mm | - | 57 W/m² | - |
| 1777645277 | 7.78° C | 98% | 1020.1 hPa | 0 mm | - | 49 W/m² | - |
| 1777644973 | 7.78° C | 98% | 1020.2 hPa | 0 mm | - | 43 W/m² | - |
| 1777644672 | 7.78° C | 99% | 1019.9 hPa | 0 mm | - | 41 W/m² | - |
| 1777644367 | 7.78° C | 99% | 1020.2 hPa | 0 mm | - | 34 W/m² | - |
| 1777644064 | 7.78° C | 99% | 1020.1 hPa | 0 mm | - | 30 W/m² | - |
| 1777643760 | 7.78° C | 99% | 1020.1 hPa | 0 mm | - | 26 W/m² | - |
| 1777643458 | 7.78° C | 99% | 1020 hPa | 0 mm | - | 21 W/m² | - |
| 1777643154 | 7.78° C | 99% | 1020.3 hPa | 0 mm | - | 15 W/m² | - |
| 1777642851 | 7.78° C | 99% | 1019.9 hPa | 0 mm | - | 14 W/m² | - |
| 1777642548 | 7.78° C | 99% | 1019.9 hPa | 0 mm | - | 11 W/m² | - |
| 1777642244 | 7.22° C | 99% | 1019.9 hPa | 0 mm | - | 8 W/m² | - |
| 1777641942 | 7.22° C | 99% | 1019.9 hPa | 0 mm | - | 6 W/m² | - |
| 1777641637 | 7.78° C | 99% | 1019.9 hPa | 0 mm | - | 4 W/m² | - |
| 1777641332 | 7.78° C | 99% | 1019.8 hPa | 0 mm | - | 3 W/m² | - |
| 1777641028 | 7.78° C | 99% | 1019.9 hPa | 0 mm | - | 1 W/m² | - |
| 1777640724 | 7.78° C | 99% | 1020 hPa | 0 mm | - | 1 W/m² | - |
* Rain latest hour (hover to see other rain measurements)
** Current wind speed in m/s (hover to see current wind gust speed)